This is the latest recevied weather packets stored in our database for station/object W4KUS-10. If no packets are shown the sender has not sent any weather packets the latest 10 day(s).
| Time | Temp. | Humidity | Pressure | Rain* | Wind** | Luminosity | Snow |
|---|---|---|---|---|---|---|---|
| 1777736440 | 15° C | 93% | 1011.2 hPa | 1.27 mm | - | - | - |
| 1777736140 | 15° C | 93% | 1011.3 hPa | 1.52 mm | - | - | - |
| 1777735840 | 15° C | 93% | 1011.3 hPa | 2.03 mm | - | - | - |
| 1777735540 | 15° C | 92% | 1011.4 hPa | 2.54 mm | - | - | - |
| 1777735240 | 15° C | 92% | 1011.5 hPa | 3.05 mm | - | - | - |
| 1777734940 | 15° C | 92% | 1011.4 hPa | 3.56 mm | - | - | - |
| 1777734640 | 15° C | 91% | 1011.2 hPa | 2.54 mm | - | - | - |
| 1777734340 | 15° C | 91% | 1011.4 hPa | 1.27 mm | - | - | - |
| 1777734040 | 15° C | 91% | 1011.2 hPa | 0 mm | - | - | - |
| 1777733740 | 15° C | 91% | 1011 hPa | 0 mm | - | - | - |
| 1777733440 | 15° C | 91% | 1010.6 hPa | 0 mm | - | - | - |
| 1777733140 | 15° C | 91% | 1010.4 hPa | 0 mm | - | - | - |
| 1777732840 | 15° C | 90% | 1010.2 hPa | 0 mm | - | - | - |
| 1777732540 | 15.56° C | 90% | 1010.3 hPa | 0 mm | - | - | - |
| 1777732240 | 15.56° C | 90% | 1010.3 hPa | 0 mm | - | - | - |
| 1777731940 | 15.56° C | 90% | 1010.3 hPa | 0 mm | - | - | - |
| 1777731640 | 15.56° C | 89% | 1010.1 hPa | 0 mm | - | - | - |
| 1777731340 | 15.56° C | 89% | 1009.9 hPa | 0 mm | - | - | - |
| 1777731040 | 15.56° C | 89% | 1009.7 hPa | 0 mm | - | - | - |
| 1777730740 | 15.56° C | 90% | 1009.8 hPa | 0 mm | - | - | - |
| 1777730440 | 15.56° C | 91% | 1009.8 hPa | 0 mm | - | - | - |
| 1777730140 | 15.56° C | 91% | 1009.7 hPa | 0 mm | - | - | - |
| 1777729840 | 15.56° C | 93% | 1009.7 hPa | 0 mm | - | - | - |
| 1777729540 | 15° C | 92% | 1009.8 hPa | 0 mm | - | - | - |
| 1777729240 | 15° C | 93% | 1009.8 hPa | 0 mm | - | - | - |
* Rain latest hour (hover to see other rain measurements)
** Current wind speed in m/s (hover to see current wind gust speed)